Regional Weather Roundup
Issued by NWS Jackson, KY

Home | Current Version | Previous Version | Graphics & Text | Print | Product List | Glossary On
Versions: 1 2 3 4 5 6 7 8 9 10 11 12 13 14 15 16 17 18 19 20 21 22 23 24 25 26 27 28 29 30 31 32 33 34 35 36 37 38 39 40 41 42 43 44 45 46 47 48
000
ASUS43 KJKL 030710
RWRJKL

EAST KENTUCKY HOURLY WEATHER ROUNDUP
NATIONAL WEATHER SERVICE JACKSON KY
300 AM EDT FRI JUL 03 2015

NOTE: "FAIR" INDICATES FEW OR NO CLOUDS BELOW 12,000 FEET WITH
NO SIGNIFICANT WEATHER AND/OR OBSTRUCTIONS TO VISIBILITY.

* THESE REPORTS ARE NOT UNDER NWS QUALITY CONTROL AND MAY NOT
  REPORT WEATHER SUCH AS PRECIPITATION AND FOG.

KYZ079-080-083-085-087-088-110-112-115-119-120-030800
...EASTERN KENTUCKY...

CITY           SKY/WX    TMP DP  RH WIND       PRES   REMARKS
JACKSON        CLOUDY    67  66  97 VRB3      29.90F FOG
LONDON         CLOUDY    71  66  84 CALM      29.89F
SOMERSET*      CLOUDY    70  70 100 S3        29.89F
MONTICELLO*    CLOUDY    71  71 100 SW6       29.91F
MIDDLESBORO*   CLOUDY    71  69  96 CALM      29.90F
HARLAN APT*      N/A     68  68 100 CALM      29.92F
BLACK MTN*       N/A     63  63 100 SW2         N/A
PIKEVILLE APT* RAIN      66  66 100 SE5       29.91F
BIG SANDY*     DRZL/FOG  68  68  99 E3        29.91S VSB 1
MOREHEAD APT*  CLOUDY    68  66  94 VRB5      29.91F FOG
$$

KYZ035-036-041-042-044-050-067-078-099-030800
...CENTRAL KENTUCKY...

CITY           SKY/WX    TMP DP  RH WIND       PRES   REMARKS
MT STERLING*   RAIN      68  68 100 S3        29.91S
FLEMING/MASON* MOCLDY    66  64  94 E3        29.91F FOG
DANVILLE*      CLOUDY    68  68 100 S3        29.88F
RICHMOND*      CLOUDY    70  68  94 CALM      29.87F
LEXINGTON      CLOUDY    71  68  90 E3        29.87F
FRANKFORT      CLOUDY    70  67  90 NE6       29.86F
$$

KYZ091>093-OHZ055-061-077-WVZ005-015-034-035-042-030800
...SOUTHERN OHIO/WEST VIRGINIA...

CITY           SKY/WX    TMP DP  RH WIND       PRES   REMARKS
COVINGTON      CLOUDY    69  65  86 NE9       29.90F FOG
COLUMBUS       PTCLDY    62  55  77 NE7       29.94F
DAYTON         PTCLDY    64  56  75 NE8       29.95S
WILMINGTON     MOCLDY    63  60  90 NE8       29.93R
HUNTINGTON     CLOUDY    67  65  93 CALM      29.89F FOG
CHARLESTON     MOCLDY    66  63  90 CALM      29.91F FOG
PINEVILLE*     CLOUDY    66  66 100 MISG      29.99F FOG
BECKLEY        LGT RAIN  64  61  90 SE6       29.98F FOG
BLUEFIELD      CLOUDY    65  61  87 CALM      29.99F FOG
$$

VAZ002-007-008-TNZ017-027-036-066-071-030800
...SOUTHWEST VIRGINIA/EAST TENNESSEE...

CITY           SKY/WX    TMP DP  RH WIND       PRES   REMARKS
WISE*          CLOUDY    68  66  94 S5        29.98F
JONESVILLE*      N/A    N/A N/A N/A MISG        N/A
ABINGDON*      LGT RAIN  69  67  95 CALM      29.96F
BRISTOL        CLOUDY    68  67  96 CALM      29.93F
KNOXVILLE      RAIN      71  69  93 SW8       29.89F FOG
OAK RIDGE      LGT RAIN  71  69  93 CALM      29.92F
CROSSVILLE     LGT RAIN  70  67  90 W6        29.94F FOG
NASHVILLE      CLOUDY    74  73  97 SW6       29.86F
$$

...KEY TO REMARKS...
VSB - VISIBILITY IN MILES
WCI - WIND CHILL INDEX
HX  - HEAT INDEX

$$


USA.gov is the U.S. government's official web portal to all federal, state and local government web resources and services.